Sparta, WI

7:16 AM CDT on March 26, 2017 (GMT -0500)
Sparta-Fort McCoy

Weather History for KCMY - January, 2014

Change the Weather History Date:

Monday, January 27, 2014

  Actual Average Record
Temperature  
Mean Temperature -7 °F -  
Max Temperature 0 °F 22 °F 55 °F (2006)
Min Temperature -14 °F 0 °F -31 °F (1950)
Degree Days  
Heating Degree Days 72    
Moisture  
Dew Point -19 °F    
Average Humidity 59    
Maximum Humidity 73    
Minimum Humidity 46    
Precipitation  
Precipitation 0.00 in - - ()
Sea Level Pressure  
Sea Level Pressure 30.25 in    
Wind  
Wind Speed 11 mph (West)    
Max Wind Speed 17 mph    
Max Gust Speed 31 mph    
Visibility 10 miles    
Events      
Averages and records for this station are not official NWS values.
T = Trace of Precipitation, MM = Missing Value Source: NWS Daily Summary

Daily Weather History Graph

Daily Weather History Graph

Search for Another Location

Airport or City:

Trip Planner

Search our weather history database for the weather conditions in past years. The results will help you decide how hot, cold, wet, or windy it might be!

Date:

Astronomy

Jan. 27, 2014 Rise Set
Actual Time 7:25 AM CST 5:06 PM CST
Civil Twilight 6:54 AM CST 5:37 PM CST
Nautical Twilight 6:19 AM CST 6:12 PM CST
Astronomical Twilight 5:45 AM CST 6:46 PM CST
Moon 4:08 AM CST (1/27) 1:51 PM CST (1/27)
Length of Visible Light 10h 43m
Length of Day
9h 41m
Waning Crescent, 14% of the Moon is Illuminated
Jan 27
Waning Crescent
Jan 30
New
Feb 6
First Quarter
Feb 14
Full
Feb 22
Last Quarter

Hourly Weather History & Observations

Time (CST) Temp. Windchill Dew Point Humidity Pressure Visibility Wind Dir Wind Speed Gust Speed Precip Events Conditions
12:15 AM 0.5 °F -16.5 °F -7.2 °F 70% 29.94 in 5.0 mi WNW 11.5 mph 23.0 mph N/A   Haze
12:35 AM -0.6 °F -20.8 °F -10.5 °F 63% 29.95 in 7.0 mi WNW 16.1 mph 31.1 mph N/A   Mostly Cloudy
12:55 AM -1.1 °F -19.3 °F -12.1 °F 60% 29.97 in 10.0 mi WNW 12.7 mph 23.0 mph N/A   Clear
1:15 AM -1.8 °F -21.7 °F -13.0 °F 59% 29.98 in 10.0 mi NW 15.0 mph 21.9 mph N/A   Scattered Clouds
1:35 AM -2.0 °F -18.7 °F -12.3 °F 62% 29.99 in 10.0 mi WNW 10.4 mph 19.6 mph N/A   Scattered Clouds
1:55 AM -2.2 °F -18.9 °F -10.8 °F 67% 30.00 in 10.0 mi WNW 10.4 mph - N/A   Overcast
2:15 AM -2.2 °F -18.9 °F -10.3 °F 68% 30.02 in 7.0 mi WNW 10.4 mph 20.7 mph N/A   Mostly Cloudy
2:35 AM -2.7 °F -19.6 °F -11.0 °F 68% 30.03 in 7.0 mi West 10.4 mph 20.7 mph N/A   Mostly Cloudy
2:55 AM -3.6 °F -21.7 °F -12.6 °F 65% 30.05 in 10.0 mi West 11.5 mph 23.0 mph N/A   Mostly Cloudy
3:15 AM -4.4 °F -21.6 °F -13.9 °F 64% 30.06 in 10.0 mi West 10.4 mph 16.1 mph N/A   Mostly Cloudy
3:35 AM -4.9 °F -26.3 °F -14.8 °F 62% 30.06 in 10.0 mi WNW 16.1 mph 21.9 mph N/A   Scattered Clouds
3:55 AM -5.4 °F -21.9 °F -14.8 °F 64% 30.07 in 10.0 mi WNW 9.2 mph 12.7 mph N/A   Scattered Clouds
4:15 AM -5.8 °F -25.2 °F -13.0 °F 71% 30.09 in 3.0 mi WNW 12.7 mph 25.3 mph N/A   Haze
4:35 AM -6.7 °F -24.5 °F -13.7 °F 72% 30.10 in 4.0 mi WNW 10.4 mph - N/A   Haze
4:55 AM -7.4 °F -30.3 °F -15.9 °F 67% 30.11 in 10.0 mi WNW 17.3 mph 21.9 mph N/A   Mostly Cloudy
5:15 AM -8.3 °F -29.2 °F -19.1 °F 59% 30.12 in 7.0 mi WNW 13.8 mph 21.9 mph N/A   Scattered Clouds
5:35 AM -8.5 °F -30.2 °F -17.9 °F 64% 30.13 in 7.0 mi WNW 15.0 mph 24.2 mph N/A   Scattered Clouds
5:55 AM -9.4 °F -28.9 °F -19.3 °F 62% 30.14 in 10.0 mi WNW 11.5 mph 19.6 mph N/A   Mostly Cloudy
6:15 AM -10.3 °F -32.6 °F -20.4 °F 61% 30.15 in 10.0 mi WNW 15.0 mph 19.6 mph N/A   Scattered Clouds
6:35 AM -10.5 °F -29.2 °F -19.8 °F 63% 30.17 in 10.0 mi West 10.4 mph - N/A   Mostly Cloudy
6:55 AM -11.2 °F -32.1 °F -21.5 °F 60% 30.18 in 10.0 mi WNW 12.7 mph 21.9 mph N/A   Mostly Cloudy
7:15 AM -11.6 °F -28.3 °F -21.5 °F 62% 30.19 in 10.0 mi WNW 8.1 mph 17.3 mph N/A   Mostly Cloudy
7:35 AM -12.1 °F -28.9 °F -22.0 °F 61% 30.21 in 10.0 mi WNW 8.1 mph 16.1 mph N/A   Mostly Cloudy
7:55 AM -12.1 °F -33.2 °F -22.2 °F 61% 30.23 in 10.0 mi WNW 12.7 mph 20.7 mph N/A   Mostly Cloudy
8:15 AM -12.3 °F -31.5 °F -22.5 °F 60% 30.25 in 10.0 mi WNW 10.4 mph 20.7 mph N/A   Overcast
8:35 AM -12.1 °F -31.3 °F -23.1 °F 58% 30.26 in 10.0 mi WNW 10.4 mph 18.4 mph N/A   Overcast
8:55 AM -12.1 °F -31.3 °F -24.3 °F 55% 30.27 in 10.0 mi WNW 10.4 mph 18.4 mph N/A   Overcast
9:15 AM -11.7 °F -35.1 °F -24.7 °F 53% 30.28 in 10.0 mi WNW 16.1 mph 20.7 mph N/A   Mostly Cloudy
9:35 AM -11.2 °F -32.1 °F -23.8 °F 54% 30.28 in 10.0 mi NW 12.7 mph 20.7 mph N/A   Clear
10:15 AM -10.3 °F -33.3 °F -24.7 °F 49% 30.30 in 10.0 mi WNW 16.1 mph 21.9 mph N/A   Clear
10:35 AM -9.8 °F -30.2 °F -24.5 °F 48% 30.30 in 10.0 mi West 12.7 mph 18.4 mph N/A   Clear
10:55 AM -9.4 °F -32.1 °F -24.3 °F 48% 30.31 in 10.0 mi WNW 16.1 mph 23.0 mph N/A   Clear
11:15 AM -9.4 °F -31.4 °F -24.2 °F 48% 30.31 in 10.0 mi WNW 15.0 mph 21.9 mph N/A   Clear
11:35 AM -8.5 °F -28.6 °F -24.0 °F 47% 30.31 in 10.0 mi WNW 12.7 mph 18.4 mph N/A   Clear
11:55 AM -8.0 °F -30.3 °F -23.1 °F 48% 30.31 in 10.0 mi WNW 16.1 mph 20.7 mph N/A   Clear
12:15 PM -7.6 °F -29.1 °F -22.9 °F 47% 30.31 in 10.0 mi West 15.0 mph 19.6 mph N/A   Clear
12:35 PM -6.5 °F -26.1 °F -22.0 °F 47% 30.31 in 10.0 mi WNW 12.7 mph - N/A   Clear
12:55 PM -6.3 °F -28.2 °F -21.5 °F 48% 30.30 in 10.0 mi West 16.1 mph 21.9 mph N/A   Clear
1:15 PM -6.5 °F -24.3 °F -22.2 °F 47% 30.31 in 10.0 mi West 10.4 mph - N/A   Clear
1:35 PM -6.2 °F -26.5 °F -21.8 °F 47% 30.31 in 10.0 mi WNW 13.8 mph - N/A   Clear
1:55 PM -5.8 °F -26.0 °F -21.5 °F 47% 30.31 in 10.0 mi WNW 13.8 mph - N/A   Clear
2:15 PM -5.6 °F -25.0 °F -21.8 °F 46% 30.31 in 10.0 mi West 12.7 mph 17.3 mph N/A   Clear
2:35 PM -5.3 °F -26.1 °F -20.9 °F 47% 30.32 in 10.0 mi WNW 15.0 mph 20.7 mph N/A   Clear
2:55 PM -5.3 °F -24.6 °F -20.7 °F 47% 30.32 in 10.0 mi West 12.7 mph 19.6 mph N/A   Clear
3:15 PM -5.1 °F -22.5 °F -21.1 °F 46% 30.32 in 10.0 mi West 10.4 mph 16.1 mph N/A   Clear
3:35 PM -5.3 °F -22.8 °F -20.6 °F 48% 30.33 in 10.0 mi West 10.4 mph 18.4 mph N/A   Clear
3:55 PM -5.8 °F -21.2 °F -20.7 °F 49% 30.33 in 10.0 mi West 8.1 mph 16.1 mph N/A   Clear
4:15 PM -5.8 °F -22.4 °F -20.6 °F 49% 30.34 in 10.0 mi West 9.2 mph - N/A   Clear
4:35 PM -6.7 °F -21.0 °F -20.6 °F 51% 30.35 in 10.0 mi West 6.9 mph - N/A   Clear
4:55 PM -7.4 °F -25.4 °F -20.7 °F 52% 30.35 in 10.0 mi West 10.4 mph - N/A   Clear
5:15 PM -7.8 °F -23.6 °F -20.6 °F 54% 30.36 in 10.0 mi West 8.1 mph - N/A   Clear
5:35 PM -8.5 °F -19.8 °F -20.9 °F 55% 30.36 in 10.0 mi West 4.6 mph - N/A   Clear
5:55 PM -9.4 °F -24.3 °F -20.7 °F 58% 30.36 in 10.0 mi West 6.9 mph - N/A   Clear
6:15 PM -9.6 °F -25.8 °F -20.7 °F 58% 30.36 in 10.0 mi West 8.1 mph - N/A   Clear
6:35 PM -9.6 °F -25.8 °F -20.6 °F 59% 30.36 in 10.0 mi West 8.1 mph - N/A   Clear
6:55 PM -10.1 °F -25.1 °F -20.7 °F 60% 30.37 in 10.0 mi West 6.9 mph - N/A   Clear
7:15 PM -9.9 °F -26.3 °F -20.4 °F 60% 30.38 in 10.0 mi West 8.1 mph - N/A   Clear
7:35 PM -10.3 °F -26.7 °F -20.2 °F 62% 30.38 in 10.0 mi West 8.1 mph - N/A   Clear
7:55 PM -10.7 °F -22.3 °F -20.2 °F 63% 30.38 in 10.0 mi WSW 4.6 mph - N/A   Clear
8:15 PM -11.2 °F -20.6 °F -20.2 °F 64% 30.38 in 10.0 mi WSW 3.5 mph - N/A   Clear
8:35 PM -12.1 °F -24.0 °F -20.4 °F 67% 30.38 in 10.0 mi WSW 4.6 mph - N/A   Clear
8:55 PM -12.1 °F -21.7 °F -20.6 °F 66% 30.38 in 10.0 mi SW 3.5 mph - N/A   Clear
9:15 PM -12.1 °F -21.7 °F -20.4 °F 67% 30.38 in 10.0 mi SW 3.5 mph - N/A   Clear
9:35 PM -12.5 °F -22.1 °F -20.4 °F 68% 30.39 in 10.0 mi SW 3.5 mph - N/A   Clear
9:55 PM -12.8 °F -22.5 °F -20.4 °F 69% 30.38 in 10.0 mi WSW 3.5 mph - N/A   Clear
10:15 PM -14.3 °F - -21.6 °F 69% 30.38 in 10.0 mi Calm Calm - N/A   Clear
10:35 PM -13.2 °F - -20.0 °F 71% 30.37 in 10.0 mi Calm Calm - N/A   Clear
10:55 PM -13.4 °F -25.5 °F -20.2 °F 71% 30.37 in 10.0 mi SW 4.6 mph - N/A   Clear
11:15 PM -14.4 °F -24.3 °F -20.7 °F 73% 30.37 in 10.0 mi WSW 3.5 mph - N/A   Clear
11:35 PM -13.9 °F -26.1 °F -20.2 °F 73% 30.37 in 10.0 mi WSW 4.6 mph - N/A   Clear
11:55 PM -13.2 °F -28.8 °F -19.7 °F 73% 30.36 in 10.0 mi WSW 6.9 mph - N/A   Clear